STARLINK-1142, 45093

Orbit data source: Space-Track

STARLINK-1142, 45093 is a payload satellite owned by SpaceX/Seattle (US) in LEO that was launched on Wed, 29 Jan 2020 UTC via an FALCON 9 launch vehicle from the Air Force Eastern Test Range (AFETR). Payload-class satellites include a variety of spacecraft equipped with specific instruments for various scientific and technological missions. These include communications satellites like Starlink; space stations such as the ISS; scientific satellites like the Hubble; Earth observation satellites from companies like Planet Labs, Umbra, and HawkEye 360; GPS; miniature CubeSats for education and research; and military/defense satellites.

Loading next visibility...
Identifier
45093, 2020-006BB
Orbit
LEO
Last TLE update
14 hours ago
Origin
Manufacturer
SpaceX/Seattle
Mission
Partially operational Commercial Communications
Bus & Motor
STARLINK, Unknown motor
Mass
260 kg wet, ~248 kg dry
Launch date (UTC)
2020-01-29 (5 years ago)
Launch vehicle
FALCON 9
Launch site
Air Force Eastern Test Range (AFETR)
Object type
Payload
Rocket body
Debris
Shape & HBR
Box + 1 Pan, 8.86 m
Radar Cross Section
13.562 m², Large (>1 m²)

Expand to show TLE details & history

TLE from 14 hours ago
0 STARLINK-1142
1 45093U 20006BB  25191.45873016  .00025315  00000-0  61905-3 0  9991
2 45093  53.0432 221.3200 0003391  30.2830 329.8369 15.40664744300972
Epoch: 2025-07-10T11:00Z
TLE epoch observation values (Epoch: 2025-07-10T11:00:34.285Z)
Latitude
-0.00005°
Longitude
127.55239°
Altitude
443.037 km
Speed
7.649 km/s
True Right ascension
14h 45m 16s
True Declination
0° 00' 00"
Sunlit
Object was in daylight at epoch
Visualization orbit readout
Latitude
-33.29338°
Longitude
95.39606°
Altitude
453.889 km
Speed
7.64 km/s
Apparent Right ascension
10h 10m 58s
Apparent Declination
-82° 12' 44"
Sunlit
Object is in daylight
Visualization observer readout
Local Sidereal Time
13:06:22
Azimuth
186.51° SSW
Elevation
-34.111°
Doppler factor
1
Orbital elements
Apogee altitude
446.736 km
Perigee altitude
442.109 km
Semi-major axis
6,822.56 km
Eccentricity
0.00034
Inclination
53.0432°
RAAN
221.32°
Arg. of periapsis
30.283°
True anomaly
Unknown
Mean anomaly
329.8369°
Eccentric anomaly
Unknown
Mean motion
3.85143 °/min
Orbital period
93.47 mins
BSTAR
0.00061905
Loading maneuver chart data...
Loading SW <> Apogee altitude chart data...

STARLINK-1142 Visibility forecast

Observer location: undefined°, undefined°

Span
Click to sort rows by Start time (UTC) header in descending order
Start Az.
Max El. time (UTC)
Max El. Az.
Max El.
End time (UTC)
End Az.
6 mins2025-07-11 04:18:04.590Z204.888° SW2025-07-11 04:21:04.590Z121.086° SE34.426°2025-07-11 04:24:04.590Z62.218° ENE
4 mins2025-07-11 05:57:04.590Z302.119° NW2025-07-11 05:58:04.590Z328.881° NNW22.495°2025-07-11 06:01:04.590Z29.049° NE
5 mins2025-07-11 10:51:04.590Z335.195° NNW2025-07-11 10:53:04.590Z38.628° NE32.036°2025-07-11 10:56:04.590Z103.171° ESE
|